Вернуться в каталог

STARLINK-33689

АктивенСвязьVLEO
NORAD 63322·PAYLOAD·🇺🇸 United States

Запущен Mar 18, 2025 с Cape Canaveral Space Force Station

Loading…

Ближайшие Пролёты (ближайшие 24 часа)

TLE

СвежийSource: CelesTrak SupGP

Эпоха: Sep 15, 2026, 03:12 UTC

1 63322C 25057R   26258.13381944 -.00018398  00000+0 -66642-3 0  2586
2 63322  43.0043  40.6405 0001789 271.9466 107.7412 15.27584657    14

Отслеживайте STARLINK-33689 в реальном времени с AllMySat

Download on the App Store